Overview Statistics Trail Chart Weather Telemetry Raw packets
 

This is the latest recevied weather packets stored in our database for station/object WI0K. If no packets are shown the sender has not sent any weather packets the latest 10 day(s).

<< 53 54 55 56 57 58 59 >>
Time Temp. Humidity Pressure Rain* Wind** Luminosity Snow
1788306927 28.33° C 28% 1017.8 hPa 0 mm - 94 W/m² -
1788306627 28.89° C 28% 1017.8 hPa 0 mm - 92 W/m² -
1788306326 28.89° C 28% 1017.8 hPa 0 mm - 114 W/m² -
1788306025 28.89° C 28% 1017.8 hPa 0 mm - 125 W/m² -
1788305724 28.89° C 30% 1017.8 hPa 0 mm - 165 W/m² -
1788305423 28.89° C 29% 1017.8 hPa 0 mm - 168 W/m² -
1788305123 28.89° C 28% 1017.8 hPa 0 mm - 152 W/m² -
1788304822 28.89° C 29% 1017.8 hPa 0 mm - 136 W/m² -
1788304521 28.89° C 29% 1017.9 hPa 0 mm - 146 W/m² -
1788304220 28.89° C 27% 1017.8 hPa 0 mm - 133 W/m² -
1788303919 28.89° C 27% 830.9 hPa 0 mm - 135 W/m² -
1788303618 29.44° C 27% 830.9 hPa 0 mm - 133 W/m² -
1788303318 29.44° C 27% 1017.8 hPa 0 mm - 104 W/m² -
1788303017 30° C 27% 1017.8 hPa 0 mm - 113 W/m² -
1788302716 30° C 29% 1017.7 hPa 0 mm - 110 W/m² -
1788302416 30° C 29% 1017.8 hPa 0 mm - 523 W/m² -
1788302114 30.56° C 27% 1017.8 hPa 0 mm - 487 W/m² -
1788301814 30.56° C 26% 1017.8 hPa 0 mm - 541 W/m² -
1788301513 30° C 26% 1017.8 hPa 0 mm - 579 W/m² -
1788301212 30° C 27% 1017.9 hPa 0 mm - 629 W/m² -
1788300911 30.56° C 29% 1017.9 hPa 0 mm - 626 W/m² -
1788300610 30.56° C 29% 1018.1 hPa 0 mm - 693 W/m² -
1788300310 30.56° C 27% 1018.1 hPa 0 mm - 720 W/m² -
1788300009 30° C 29% 1018.1 hPa 0 mm - 708 W/m² -
1788299708 30° C 30% 1018.1 hPa 0 mm - 696 W/m² -

* Rain latest hour (hover to see other rain measurements)
** Current wind speed in m/s (hover to see current wind gust speed)